SM4TUV Weather Reports


Display with metric or nautical units.
time (UTC)temp
F
wind
direction
speed
MPH
gust
MPH
rain 1hr
in
rain 24hr
in
rain mn
in
humidity
%
barometer
mb
20260502130531 63 316 10.0 16.0 0.00 0.00 0.00 33 975.2
20260502122931 64 316 9.0 12.0 0.00 0.00 0.00 32 975.2
20260502122031 64 305 11.0 16.0 0.00 0.00 0.00 32 975.2
20260502121131 66 299 5.0 11.0 0.00 0.00 0.00 29 975.3
20260502120231 66 276 4.0 7.0 0.00 0.00 0.00 32 975.3
20260502115331 66 276 7.0 9.0 0.00 0.00 0.00 29 975.4
20260502113531 68 275 8.0 10.0 0.00 0.00 0.00 29 975.4
20260502112632 67 302 8.0 12.0 0.00 0.00 0.00 31 975.7
20260502111731 65 297 7.0 10.0 0.00 0.00 0.00 33 975.8
20260502110831 65 335 8.0 9.0 0.00 0.00 0.00 34 975.9
20260502105931 64 278 8.0 12.0 0.00 0.00 0.00 34 975.9
20260502104132 66 262 9.0 11.0 0.00 0.00 0.00 32 975.9
20260502103231 67 224 11.0 18.0 0.00 0.00 0.00 31 975.9
20260502102331 66 259 9.0 14.0 0.00 0.00 0.00 31 976.1
20260502101431 65 253 7.0 11.0 0.00 0.00 0.00 33 976.2
20260502100531 64 207 9.0 11.0 0.00 0.00 0.00 31 976.0
20260502091131 64 237 8.0 11.0 0.00 0.00 0.00 33 976.6
20260502090231 64 267 8.0 13.0 0.00 0.00 0.00 35 976.6
20260502070531 60 201 8.0 11.0 0.00 0.00 0.00 45 977.6
20260502065632 59 231 8.0 11.0 0.00 0.00 0.00 45 977.5
20260502064731 59 254 6.0 9.0 0.00 0.00 0.00 46 977.7
20260502063831 58 216 6.0 11.0 0.00 0.00 0.00 47 977.9
20260502062931 58 214 7.0 11.0 0.00 0.00 0.00 49 977.9
20260502062031 58 253 6.0 11.0 0.00 0.00 0.00 48 978.0
20260502061131 56 238 7.0 11.0 0.00 0.00 0.00 50 977.9
20260502060231 56 221 9.0 11.0 0.00 0.00 0.00 51 978.1
20260502054431 55 242 8.0 12.0 0.00 0.00 0.00 52 978.0
20260502053531 55 248 8.0 11.0 0.00 0.00 0.00 52 978.1
20260502052632 54 247 7.0 12.0 0.00 0.00 0.00 53 978.0
20260502050831 53 218 8.0 11.0 0.00 0.00 0.00 54 978.0
20260502045931 53 227 9.0 12.0 0.00 0.00 0.00 55 978.1
20260502045032 53 235 8.0 11.0 0.00 0.00 0.00 55 978.2
20260502044132 53 216 7.0 11.0 0.00 0.00 0.00 55 978.1
20260502041432 51 230 6.0 10.0 0.00 0.00 0.00 58 978.2
20260502040531 51 243 6.0 7.0 0.00 0.00 0.00 60 978.3
20260502035632 50 219 6.0 8.0 0.00 0.00 0.00 60 978.4
20260502034731 50 227 7.0 8.0 0.00 0.00 0.00 61 978.5
20260502033832 49 209 6.0 8.0 0.00 0.00 0.00 63 978.5
20260502032931 48 226 6.0 8.0 0.00 0.00 0.00 63 978.6
20260502031131 48 225 7.0 10.0 0.00 0.00 0.00 64 978.7
20260502030233 48 255 6.0 11.0 0.00 0.00 0.00 64 978.8
20260502025332 48 223 8.0 11.0 0.00 0.00 0.00 64 978.9
20260502024431 48 233 6.0 8.0 0.00 0.00 0.00 63 978.9
20260502023531 49 232 8.0 10.0 0.00 0.00 0.00 63 978.9
20260502022632 49 234 8.0 10.0 0.00 0.00 0.00 62 979.1
20260502021732 49 250 6.0 11.0 0.00 0.00 0.00 61 979.0
20260502015931 50 219 10.0 12.0 0.00 0.00 0.00 60 979.1
20260502015031 50 225 8.0 11.0 0.00 0.00 0.00 60 979.1
20260502014132 50 233 8.0 10.0 0.00 0.00 0.00 60 979.3
20260502013232 51 253 7.0 10.0 0.00 0.00 0.00 59 979.4
20260502012331 51 235 9.0 10.0 0.00 0.00 0.00 58 979.7
20260502011431 51 230 8.0 10.0 0.00 0.00 0.00 58 979.9
20260502010532 52 230 8.0 10.0 0.00 0.00 0.00 56 979.9
20260502005633 52 227 8.0 11.0 0.00 0.00 0.00 56 980.1
20260502004732 52 239 9.0 12.0 0.00 0.00 0.00 55 980.0
20260502003831 53 232 10.0 13.0 0.00 0.00 0.00 55 980.0
20260502002032 53 197 9.0 13.0 0.00 0.00 0.00 54 980.1
20260502000233 53 215 11.0 14.0 0.00 0.00 0.00 53 980.2
20260501235332 53 221 10.0 14.0 0.00 0.00 0.00 53 980.3
20260501234431 54 221 9.0 14.0 0.00 0.00 0.00 53 980.4
20260501232632 54 220 10.0 14.0 0.00 0.00 0.00 52 980.5
20260501230831 55 265 9.0 11.0 0.00 0.00 0.00 52 980.9
20260501225932 55 255 10.0 13.0 0.00 0.00 0.00 52 980.9
20260501225032 55 232 10.0 12.0 0.00 0.00 0.00 51 980.8
20260501224132 55 208 9.0 12.0 0.00 0.00 0.00 50 980.9
20260501223231 56 221 8.0 12.0 0.00 0.00 0.00 50 981.0
20260501222331 56 200 10.0 15.0 0.00 0.00 0.00 49 981.1
20260501220532 57 96 11.0 13.0 0.00 0.00 0.00 48 981.0
20260501215632 57 227 10.0 13.0 0.00 0.00 0.00 48 981.1
20260501214731 57 229 10.0 15.0 0.00 0.00 0.00 47 980.9
20260501213832 58 222 11.0 15.0 0.00 0.00 0.00 46 981.0
20260501212932 58 231 10.0 13.0 0.00 0.00 0.00 45 981.0
20260501212032 59 249 10.0 12.0 0.00 0.00 0.00 44 981.2
20260501210231 61 296 10.0 14.0 0.00 0.00 0.00 42 981.2
20260501205331 61 238 9.0 17.0 0.00 0.00 0.00 41 981.1
20260501201731 62 236 10.0 15.0 0.00 0.00 0.00 39 981.3
20260501200832 62 223 10.0 15.0 0.00 0.00 0.00 38 981.3
20260501195931 62 187 6.0 11.0 0.00 0.00 0.00 38 981.3
20260501195031 62 214 6.0 14.0 0.00 0.00 0.00 37 981.3
20260501194132 62 179 4.0 8.0 0.00 0.00 0.00 37 981.2
20260501193231 63 183 5.0 7.0 0.00 0.00 0.00 36 981.4
20260501191431 64 178 5.0 7.0 0.00 0.00 0.00 35 981.3
20260501190531 65 188 5.0 8.0 0.00 0.00 0.00 34 981.4
20260501184732 66 197 7.0 10.0 0.00 0.00 0.00 32 981.3
20260501183832 68 238 7.0 10.0 0.00 0.00 0.00 31 981.4
20260501182932 68 266 8.0 10.0 0.00 0.00 0.00 30 981.5
20260501182032 69 248 8.0 9.0 0.00 0.00 0.00 29 981.5
20260501181131 70 294 12.0 14.0 0.00 0.00 0.00 29 981.5
20260501180232 71 280 10.0 15.0 0.00 0.00 0.00 28 981.6
20260501175331 71 227 9.0 15.0 0.00 0.00 0.00 27 981.4
20260501174432 72 229 6.0 9.0 0.00 0.00 0.00 27 981.5
20260501173531 72 275 7.0 12.0 0.00 0.00 0.00 26 981.4
20260501172632 73 270 8.0 10.0 0.00 0.00 0.00 24 981.6
20260501171732 74 271 10.0 17.0 0.00 0.00 0.00 21 981.5
20260501170832 74 276 9.0 17.0 0.00 0.00 0.00 21 981.6
20260501165932 74 256 10.0 17.0 0.00 0.00 0.00 22 981.6
20260501165031 74 289 10.0 15.0 0.00 0.00 0.00 24 981.7
20260501164131 74 259 9.0 14.0 0.00 0.00 0.00 25 981.9
20260501162332 75 281 11.0 14.0 0.00 0.00 0.00 22 982.3
20260501161432 76 277 9.0 12.0 0.00 0.00 0.00 20 982.3
20260501160532 75 284 12.0 17.0 0.00 0.00 0.00 18 982.4
20260501155632 74 297 14.0 23.0 0.00 0.00 0.00 19 982.6
20260501154732 74 277 12.0 23.0 0.00 0.00 0.00 18 982.6
20260501153832 75 318 12.0 17.0 0.00 0.00 0.00 19 982.7
20260501152932 74 297 14.0 18.0 0.00 0.00 0.00 19 982.9
20260501152032 75 315 13.0 19.0 0.00 0.00 0.00 19 982.8
20260501151132 75 281 14.0 21.0 0.00 0.00 0.00 19 982.9
20260501150232 76 276 12.0 17.0 0.00 0.00 0.00 21 982.9
20260501145332 76 306 9.0 15.0 0.00 0.00 0.00 20 982.8